• In India
  • List of Countries
  • For 7 days
  • Water Temperature
  • Satellite Maps
  • Weather Map
  • Weather Widgets
  • user-avatar
    Login

    Hourly Weather Lankaran

    Today, 23 October, Monday

    Time Temperature Precipitation Wind Pressure Humidity
    00:00 +9°C° 0 mm 2 mps 631 mmHg 22%
    01:00 +9°C° 0 mm 2 mps 631 mmHg 23%
    02:00 +9°C° 0 mm 3 mps 631 mmHg 24%
    03:00 +9°C° 0 mm 3 mps 631 mmHg 26%
    04:00 +9°C° 0 mm 3 mps 631 mmHg 28%
    05:00 +8°C° 0 mm 3 mps 631 mmHg 30%
    06:00 +8°C° 0 mm 3 mps 632 mmHg 32%
    07:00 +10°C° 0 mm 3 mps 633 mmHg 30%
    08:00 +12°C° 0 mm 4 mps 634 mmHg 29%
    09:00 +14°C° 0 mm 4 mps 634 mmHg 27%
    10:00 +14°C° 0 mm 4 mps 635 mmHg 27%
    11:00 +15°C° 0 mm 4 mps 635 mmHg 28%
    12:00 +15°C° 0 mm 4 mps 636 mmHg 28%
    13:00 +14°C° 0 mm 4 mps 636 mmHg 37%
    14:00 +13°C° 0 mm 4 mps 636 mmHg 45%
    15:00 +13°C° 0 mm 4 mps 635 mmHg 53%
    16:00 +11°C° 0.1 mm 3 mps 636 mmHg 62%
    17:00 +10°C° 0.1 mm 3 mps 636 mmHg 71%
    18:00 +9°C° 0.1 mm 3 mps 636 mmHg 79%
    19:00 +9°C° 0.1 mm 3 mps 636 mmHg 80%
    20:00 +9°C° 0.1 mm 3 mps 636 mmHg 81%
    21:00 +8°C° 0.1 mm 3 mps 636 mmHg 83%
    22:00 +8°C° 0.1 mm 3 mps 636 mmHg 83%
    23:00 +8°C° 0.1 mm 2 mps 636 mmHg 83%

    Tomorrow, 24 October, Tuesday

    Time Temperature Precipitation Wind Pressure Humidity
    00:00 +8°C° 0.1 mm 2 mps 636 mmHg 83%
    01:00 +7°C° 0 mm 2 mps 636 mmHg 83%
    02:00 +7°C° 0 mm 2 mps 635 mmHg 82%
    03:00 +7°C° 0 mm 2 mps 635 mmHg 81%
    04:00 +7°C° 0 mm 2 mps 635 mmHg 79%
    05:00 +7°C° 0 mm 2 mps 635 mmHg 77%
    06:00 +6°C° 0 mm 2 mps 635 mmHg 75%
    07:00 +8°C° 0 mm 2 mps 636 mmHg 68%
    08:00 +10°C° 0 mm 2 mps 636 mmHg 61%
    09:00 +13°C° 0 mm 2 mps 637 mmHg 55%
    10:00 +13°C° 0 mm 3 mps 637 mmHg 51%
    11:00 +14°C° 0 mm 3 mps 637 mmHg 48%
    12:00 +16°C° 0 mm 3 mps 637 mmHg 45%
    13:00 +16°C° 0 mm 3 mps 637 mmHg 46%
    14:00 +16°C° 0 mm 3 mps 636 mmHg 47%
    15:00 +16°C° 0 mm 3 mps 636 mmHg 48%
    16:00 +14°C° 0 mm 3 mps 636 mmHg 55%
    17:00 +13°C° 0 mm 2 mps 636 mmHg 62%
    18:00 +12°C° 0 mm 2 mps 636 mmHg 70%
    19:00 +10°C° 0 mm 2 mps 636 mmHg 68%
    20:00 +11°C° 0 mm 1 mps 636 mmHg 66%
    21:00 +10°C° 0 mm 1 mps 636 mmHg 64%
    22:00 +10°C° 0 mm 1 mps 636 mmHg 60%
    23:00 +10°C° 0 mm 1 mps 636 mmHg 56%

    Day after tomorrow, 25 October, Wednesday

    Time Temperature Precipitation Wind Pressure Humidity
    00:00 +10°C° 0 mm 1 mps 636 mmHg 52%
    01:00 +9°C° 0 mm 2 mps 636 mmHg 48%
    02:00 +9°C° 0 mm 2 mps 636 mmHg 43%
    03:00 +9°C° 0 mm 2 mps 636 mmHg 39%
    04:00 +9°C° 0 mm 2 mps 636 mmHg 37%
    05:00 +9°C° 0 mm 2 mps 636 mmHg 35%
    06:00 +9°C° 0 mm 2 mps 636 mmHg 34%
    07:00 +12°C° 0 mm 2 mps 637 mmHg 31%
    08:00 +14°C° 0 mm 2 mps 638 mmHg 29%
    09:00 +17°C° 0 mm 3 mps 639 mmHg 27%
    10:00 +18°C° 0 mm 3 mps 639 mmHg 28%
    11:00 +19°C° 0 mm 3 mps 639 mmHg 29%
    12:00 +20°C° 0 mm 3 mps 638 mmHg 30%
    13:00 +20°C° 0 mm 3 mps 638 mmHg 31%
    14:00 +20°C° 0 mm 3 mps 638 mmHg 32%
    15:00 +20°C° 0 mm 3 mps 638 mmHg 33%
    16:00 +18°C° 0 mm 3 mps 637 mmHg 35%
    17:00 +16°C° 0 mm 3 mps 637 mmHg 37%
    18:00 +15°C° 0 mm 2 mps 637 mmHg 39%
    19:00 +15°C° 0 mm 2 mps 637 mmHg 37%
    20:00 +14°C° 0 mm 2 mps 637 mmHg 34%
    21:00 +14°C° 0 mm 2 mps 637 mmHg 31%
    22:00 +14°C° 0 mm 2 mps 636 mmHg 30%
    23:00 +14°C° 0 mm 2 mps 636 mmHg 29%

    26 October, Thursday

    Time Temperature Precipitation Wind Pressure Humidity
    00:00 +14°C° 0 mm 2 mps 636 mmHg 28%
    01:00 +13°C° 0 mm 2 mps 636 mmHg 28%
    02:00 +12°C° 0 mm 3 mps 636 mmHg 29%
    03:00 +12°C° 0 mm 3 mps 635 mmHg 29%
    04:00 +12°C° 0 mm 3 mps 635 mmHg 30%
    05:00 +12°C° 0 mm 3 mps 635 mmHg 31%
    06:00 +12°C° 0 mm 3 mps 635 mmHg 32%
    07:00 +14°C° 0 mm 3 mps 636 mmHg 30%
    08:00 +18°C° 0 mm 4 mps 636 mmHg 28%
    09:00 +20°C° 0 mm 4 mps 637 mmHg 26%
    10:00 +21°C° 0 mm 5 mps 637 mmHg 25%
    11:00 +22°C° 0 mm 5 mps 636 mmHg 24%
    12:00 +23°C° 0 mm 5 mps 636 mmHg 23%
    13:00 +23°C° 0 mm 5 mps 636 mmHg 22%
    14:00 +23°C° 0 mm 5 mps 636 mmHg 22%
    15:00 +22°C° 0 mm 5 mps 636 mmHg 21%
    16:00 +20°C° 0 mm 4 mps 635 mmHg 26%
    17:00 +18°C° 0 mm 4 mps 635 mmHg 32%
    18:00 +14°C° 0 mm 3 mps 635 mmHg 37%
    19:00 +14°C° 0 mm 3 mps 635 mmHg 42%
    20:00 +13°C° 0 mm 3 mps 635 mmHg 47%
    21:00 +12°C° 0 mm 3 mps 635 mmHg 52%
    22:00 +12°C° 0 mm 3 mps 635 mmHg 55%
    23:00 +11°C° 0 mm 3 mps 635 mmHg 57%

    27 October, Friday

    Time Temperature Precipitation Wind Pressure Humidity
    00:00 +11°C° 0 mm 3 mps 634 mmHg 60%
    01:00 +11°C° 0 mm 3 mps 634 mmHg 61%
    02:00 +11°C° 0 mm 3 mps 634 mmHg 62%
    03:00 +10°C° 0 mm 3 mps 634 mmHg 63%
    04:00 +10°C° 0 mm 3 mps 634 mmHg 65%
    05:00 +9°C° 0 mm 3 mps 634 mmHg 67%
    06:00 +9°C° 0 mm 3 mps 634 mmHg 68%
    07:00 +10°C° 0 mm 3 mps 635 mmHg 65%
    08:00 +12°C° 0 mm 4 mps 636 mmHg 62%
    09:00 +13°C° 0 mm 4 mps 636 mmHg 58%
    10:00 +14°C° 0 mm 4 mps 636 mmHg 58%
    11:00 +14°C° 0 mm 5 mps 636 mmHg 57%
    12:00 +15°C° 0 mm 5 mps 636 mmHg 56%
    13:00 +15°C° 0.1 mm 5 mps 636 mmHg 58%
    14:00 +14°C° 0.1 mm 4 mps 635 mmHg 61%
    15:00 +14°C° 0.1 mm 4 mps 635 mmHg 63%
    16:00 +13°C° 0.2 mm 4 mps 635 mmHg 67%
    17:00 +12°C° 0.2 mm 3 mps 635 mmHg 72%
    18:00 +11°C° 0.2 mm 3 mps 635 mmHg 76%
    19:00 +11°C° 0.1 mm 3 mps 635 mmHg 77%
    20:00 +10°C° 0.1 mm 3 mps 635 mmHg 78%
    21:00 +10°C° 0.1 mm 3 mps 635 mmHg 79%
    22:00 +10°C° 0 mm 3 mps 635 mmHg 79%
    23:00 +10°C° 0 mm 3 mps 635 mmHg 79%

    28 October, Saturday

    Time Temperature Precipitation Wind Pressure Humidity
    00:00 +10°C° 0 mm 3 mps 634 mmHg 80%
    01:00 +10°C° 0 mm 3 mps 634 mmHg 79%
    02:00 +10°C° 0 mm 3 mps 634 mmHg 79%
    03:00 +10°C° 0 mm 3 mps 634 mmHg 78%
    04:00 +9°C° 0 mm 2 mps 634 mmHg 77%
    05:00 +9°C° 0 mm 2 mps 634 mmHg 76%
    06:00 +9°C° 0 mm 2 mps 634 mmHg 75%
    07:00 +11°C° 0 mm 3 mps 634 mmHg 64%
    08:00 +13°C° 0 mm 3 mps 635 mmHg 54%
    09:00 +17°C° 0 mm 4 mps 636 mmHg 43%
    10:00 +17°C° 0 mm 5 mps 635 mmHg 39%
    11:00 +20°C° 0 mm 5 mps 635 mmHg 35%
    12:00 +21°C° 0 mm 6 mps 635 mmHg 31%
    13:00 +21°C° 0 mm 6 mps 635 mmHg 30%
    14:00 +21°C° 0 mm 6 mps 634 mmHg 30%
    15:00 +21°C° 0 mm 6 mps 634 mmHg 30%
    16:00 +20°C° 0 mm 5 mps 634 mmHg 32%
    17:00 +18°C° 0 mm 4 mps 633 mmHg 35%
    18:00 +15°C° 0 mm 4 mps 633 mmHg 38%
    19:00 +15°C° 0 mm 4 mps 633 mmHg 36%
    20:00 +16°C° 0 mm 3 mps 633 mmHg 35%
    21:00 +14°C° 0 mm 3 mps 633 mmHg 33%
    22:00 +14°C° 0 mm 3 mps 632 mmHg 33%
    23:00 +14°C° 0 mm 3 mps 632 mmHg 32%

    29 October, Sunday

    Time Temperature Precipitation Wind Pressure Humidity
    00:00 +14°C° 0 mm 3 mps 631 mmHg 31%
    01:00 +13°C° 0 mm 3 mps 631 mmHg 32%
    02:00 +13°C° 0 mm 3 mps 631 mmHg 32%
    03:00 +13°C° 0 mm 3 mps 631 mmHg 32%
    04:00 +13°C° 0 mm 3 mps 631 mmHg 32%
    05:00 +13°C° 0 mm 3 mps 631 mmHg 32%
    06:00 +13°C° 0 mm 3 mps 631 mmHg 31%
    07:00 +14°C° 0 mm 4 mps 632 mmHg 32%
    08:00 +15°C° 0 mm 5 mps 633 mmHg 33%
    09:00 +16°C° 0 mm 6 mps 633 mmHg 34%
    10:00 +17°C° 0 mm 7 mps 633 mmHg 34%
    11:00 +17°C° 0 mm 9 mps 633 mmHg 34%
    12:00 +18°C° 0 mm 10 mps 633 mmHg 34%
    13:00 +18°C° 0 mm 9 mps 632 mmHg 33%
    14:00 +20°C° 0 mm 8 mps 632 mmHg 31%
    15:00 +20°C° 0 mm 7 mps 632 mmHg 29%
    16:00 +17°C° 0 mm 6 mps 632 mmHg 32%
    17:00 +17°C° 0 mm 4 mps 632 mmHg 35%
    18:00 +14°C° 0 mm 3 mps 632 mmHg 38%
    19:00 +13°C° 0 mm 3 mps 632 mmHg 42%
    20:00 +12°C° 0 mm 3 mps 632 mmHg 45%
    21:00 +12°C° 0 mm 3 mps 632 mmHg 49%
    22:00 +11°C° 0 mm 3 mps 632 mmHg 51%
    23:00 +11°C° 0 mm 3 mps 632 mmHg 53%
    Show more